Kincheloe, MI

8:52 AM EDT on August 27, 2016 (GMT -0400)
Chippewa County International

Weather History for KCIU - January, 2013

Change the Weather History Date:

Wednesday, January 16, 2013

  Actual Average Record
Temperature  
Mean Temperature 22 °F -  
Max Temperature 30 °F 23 °F 38 °F (1983)
Min Temperature 15 °F 3 °F -22 °F (2004)
Degree Days  
Heating Degree Days 42    
Moisture  
Dew Point 22 °F    
Average Humidity 85    
Maximum Humidity 100    
Minimum Humidity 68    
Precipitation  
Precipitation 0.00 in - - ()
Sea Level Pressure  
Sea Level Pressure 29.70 in    
Wind  
Wind Speed 11 mph (WSW)    
Max Wind Speed 25 mph    
Max Gust Speed 37 mph    
Visibility 8 miles    
Events      
Averages and records for this station are not official NWS values.
T = Trace of Precipitation, MM = Missing Value Source: NWS Daily Summary

Daily Weather History Graph

Daily Weather History Graph

Search for Another Location

Airport or City:

Trip Planner

Search our weather history database for the weather conditions in past years. The results will help you decide how hot, cold, wet, or windy it might be!

Date:

Astronomy

Jan. 16, 2013 Rise Set
Actual Time 8:15 AM EST 5:20 PM EST
Civil Twilight 7:42 AM EST 5:53 PM EST
Nautical Twilight 7:05 AM EST 6:30 PM EST
Astronomical Twilight 6:29 AM EST 7:06 PM EST
Moon 10:30 AM EST (1/16) 11:34 PM EST (1/16)
Length of Visible Light 10h 11m
Length of Day
9h 04m
Waxing Crescent, 28% of the Moon is Illuminated
Jan 16
Waxing Crescent
Jan 18
First Quarter
Jan 26
Full
Feb 3
Last Quarter
Feb 10
New

Hourly Weather History & Observations

Time (EST) Temp. Windchill Dew Point Humidity Pressure Visibility Wind Dir Wind Speed Gust Speed Precip Events Conditions
12:15 AM 21.2 °F 16.4 °F 21.2 °F 100% 29.96 in 10.0 mi SSE 3.5 mph - N/A   Overcast
12:35 AM 21.2 °F 16.4 °F 21.2 °F 100% 29.94 in 10.0 mi SSE 3.5 mph - N/A   Overcast
1:15 AM 21.2 °F - 21.2 °F 100% 29.92 in 10.0 mi Calm Calm - N/A   Overcast
1:35 AM 24.8 °F 20.5 °F 19.4 °F 80% 29.91 in 10.0 mi SW 3.5 mph - N/A   Overcast
1:55 AM 26.6 °F 21.2 °F 19.4 °F 74% 29.90 in 10.0 mi SW 4.6 mph - N/A   Overcast
2:15 AM 26.6 °F 22.6 °F 19.4 °F 74% 29.89 in 10.0 mi WSW 3.5 mph - N/A   Overcast
2:35 AM 28.4 °F 19.7 °F 19.4 °F 69% 29.88 in 10.0 mi SW 9.2 mph - N/A   Overcast
2:55 AM 28.4 °F 21.2 °F 19.4 °F 69% 29.87 in 10.0 mi SSW 6.9 mph - N/A   Overcast
3:15 AM 28.4 °F 20.4 °F 19.4 °F 69% 29.86 in 10.0 mi SW 8.1 mph - N/A   Overcast
3:35 AM 28.4 °F 20.4 °F 19.4 °F 69% 29.85 in 10.0 mi SW 8.1 mph - N/A   Mostly Cloudy
3:55 AM 28.4 °F 20.4 °F 19.4 °F 69% 29.83 in 10.0 mi SW 8.1 mph 16.1 mph N/A   Mostly Cloudy
4:15 AM 28.4 °F 20.4 °F 21.2 °F 74% 29.82 in 10.0 mi SW 8.1 mph - N/A   Overcast
4:35 AM 28.4 °F 19.1 °F 19.4 °F 69% 29.80 in 10.0 mi SSW 10.4 mph 17.3 mph N/A   Mostly Cloudy
4:55 AM 26.6 °F 18.2 °F 21.2 °F 80% 29.78 in 10.0 mi South 8.1 mph - N/A   Scattered Clouds
5:15 AM 26.6 °F 19.1 °F 21.2 °F 80% 29.76 in 10.0 mi South 6.9 mph - N/A   Mostly Cloudy
5:35 AM 26.6 °F 18.2 °F 23.0 °F 86% 29.75 in 10.0 mi South 8.1 mph - N/A   Overcast
5:55 AM 26.6 °F 17.5 °F 23.0 °F 86% 29.74 in 10.0 mi South 9.2 mph 17.3 mph N/A   Mostly Cloudy
6:15 AM 26.6 °F 17.5 °F 24.8 °F 93% 29.72 in 10.0 mi South 9.2 mph 17.3 mph N/A   Overcast
6:35 AM 26.6 °F 16.2 °F 24.8 °F 93% 29.71 in 10.0 mi South 11.5 mph 16.1 mph N/A   Overcast
6:55 AM 26.6 °F 16.2 °F 24.8 °F 93% 29.70 in 10.0 mi South 11.5 mph 17.3 mph N/A   Overcast
7:15 AM 26.6 °F 15.7 °F 24.8 °F 93% 29.68 in 10.0 mi South 12.7 mph 19.6 mph N/A   Overcast
7:35 AM 26.6 °F 14.7 °F 24.8 °F 93% 29.66 in 10.0 mi South 15.0 mph 23.0 mph N/A   Overcast
7:55 AM 26.6 °F 15.7 °F 23.0 °F 86% 29.66 in 10.0 mi South 12.7 mph 21.9 mph N/A   Overcast
8:15 AM 26.6 °F 15.2 °F 23.0 °F 86% 29.65 in 10.0 mi South 13.8 mph 19.6 mph N/A   Overcast
8:35 AM 26.6 °F 14.7 °F 23.0 °F 86% 29.63 in 10.0 mi South 15.0 mph 27.6 mph N/A   Overcast
8:55 AM 26.6 °F 14.7 °F 23.0 °F 86% 29.63 in 10.0 mi South 15.0 mph 26.5 mph N/A   Overcast
9:15 AM 26.6 °F 15.7 °F 23.0 °F 86% 29.62 in 10.0 mi South 12.7 mph 21.9 mph N/A   Overcast
9:35 AM 26.6 °F 13.8 °F 23.0 °F 86% 29.60 in 10.0 mi South 17.3 mph 27.6 mph N/A   Overcast
9:55 AM 28.4 °F 18.0 °F 23.0 °F 80% 29.59 in 10.0 mi South 12.7 mph 25.3 mph N/A   Overcast
10:15 AM 28.4 °F 18.5 °F 24.8 °F 86% 29.58 in 3.0 mi South 11.5 mph 25.3 mph N/A   Overcast
10:35 AM 28.4 °F 18.0 °F 26.6 °F 93% 29.57 in 1.0 mi South 12.7 mph 20.7 mph N/A   Overcast
10:55 AM 28.4 °F 19.1 °F 26.6 °F 93% 29.55 in 1.2 mi South 10.4 mph 16.1 mph N/A   Overcast
11:15 AM 28.4 °F 15.8 °F 28.4 °F 100% 29.55 in 0.8 mi SW 18.4 mph 25.3 mph N/A   Overcast
11:35 AM 28.4 °F 18.0 °F 28.4 °F 100% 29.55 in 0.5 mi SW 12.7 mph 27.6 mph N/A   Overcast
11:55 AM 30.2 °F 19.8 °F 28.4 °F 93% 29.54 in 0.5 mi SW 13.8 mph 23.0 mph N/A   Overcast
12:15 PM 30.2 °F 18.9 °F 28.4 °F 93% 29.53 in 0.5 mi WSW 16.1 mph 23.0 mph N/A   Overcast
12:35 PM 28.4 °F 17.0 °F 26.6 °F 93% 29.53 in 0.5 mi WSW 15.0 mph 27.6 mph N/A   Overcast
12:55 PM 28.4 °F 15.1 °F 26.6 °F 93% 29.52 in 2.5 mi West 20.7 mph 29.9 mph N/A   Overcast
1:15 PM 28.4 °F 15.4 °F 26.6 °F 93% 29.52 in 10.0 mi WSW 19.6 mph 25.3 mph N/A   Overcast
1:35 PM 28.4 °F 15.8 °F 24.8 °F 86% 29.53 in 9.0 mi WSW 18.4 mph 27.6 mph N/A   Overcast
1:55 PM 28.4 °F 15.1 °F 24.8 °F 86% 29.53 in 6.0 mi WSW 20.7 mph 25.3 mph N/A   Overcast
2:15 PM 26.6 °F 15.7 °F 24.8 °F 93% 29.54 in 10.0 mi West 12.7 mph 23.0 mph N/A   Overcast
2:35 PM 26.6 °F 14.3 °F 24.8 °F 93% 29.54 in 10.0 mi WSW 16.1 mph 19.6 mph N/A   Overcast
2:55 PM 26.6 °F 18.2 °F 24.8 °F 93% 29.54 in 10.0 mi SW 8.1 mph 18.4 mph N/A   Overcast
3:15 PM 28.4 °F 17.5 °F 24.8 °F 86% 29.55 in 10.0 mi WSW 13.8 mph 18.4 mph N/A   Overcast
3:35 PM 28.4 °F 17.5 °F 24.8 °F 86% 29.56 in 10.0 mi WSW 13.8 mph 20.7 mph N/A   Overcast
3:55 PM 28.4 °F 19.1 °F 24.8 °F 86% 29.58 in 10.0 mi WSW 10.4 mph 18.4 mph N/A   Overcast
4:15 PM 28.4 °F 19.1 °F 24.8 °F 86% 29.58 in 9.0 mi WSW 10.4 mph 18.4 mph N/A   Overcast
4:35 PM 28.4 °F 18.5 °F 24.8 °F 86% 29.59 in 10.0 mi West 11.5 mph 16.1 mph N/A   Overcast
4:55 PM 26.6 °F 15.7 °F 24.8 °F 93% 29.60 in 9.0 mi WSW 12.7 mph 18.4 mph N/A   Overcast
5:15 PM 26.6 °F 15.2 °F 24.8 °F 93% 29.62 in 9.0 mi West 13.8 mph 20.7 mph N/A   Overcast
5:35 PM 26.6 °F 14.3 °F 24.8 °F 93% 29.64 in 7.0 mi West 16.1 mph 19.6 mph N/A   Overcast
5:55 PM 26.6 °F 15.2 °F 24.8 °F 93% 29.65 in 9.0 mi West 13.8 mph 18.4 mph N/A   Overcast
6:15 PM 26.6 °F 14.7 °F 24.8 °F 93% 29.67 in 7.0 mi West 15.0 mph 20.7 mph N/A   Overcast
6:35 PM 26.6 °F 14.3 °F 24.8 °F 93% 29.68 in 10.0 mi West 16.1 mph 23.0 mph N/A   Overcast
6:55 PM 24.8 °F 9.6 °F 24.8 °F 100% 29.69 in 0.8 mi NW 23.0 mph 32.2 mph N/A   Overcast
7:15 PM 24.8 °F 10.7 °F 21.2 °F 86% 29.71 in 4.0 mi NW 19.6 mph 29.9 mph N/A   Mostly Cloudy
7:35 PM 24.8 °F 10.3 °F 17.6 °F 74% 29.73 in 7.0 mi WNW 20.7 mph 27.6 mph N/A   Overcast
7:55 PM 23.0 °F 7.2 °F 15.8 °F 74% 29.74 in 5.0 mi WNW 23.0 mph 31.1 mph N/A   Overcast
8:15 PM 21.2 °F 4.5 °F 15.8 °F 80% 29.75 in 4.0 mi NW 24.2 mph 36.8 mph N/A   Overcast
8:35 PM 21.2 °F 4.2 °F 14.0 °F 74% 29.77 in 5.0 mi NW 25.3 mph 33.4 mph N/A   Overcast
8:55 PM 21.2 °F 5.2 °F 12.2 °F 68% 29.78 in 6.0 mi NW 21.9 mph 31.1 mph N/A   Overcast
9:15 PM 19.4 °F 3.6 °F 10.4 °F 68% 29.79 in 9.0 mi NW 19.6 mph 26.5 mph N/A   Overcast
9:35 PM 19.4 °F 2.8 °F 12.2 °F 74% 29.80 in 9.0 mi NW 21.9 mph 26.5 mph N/A   Scattered Clouds
9:55 PM 19.4 °F 2.8 °F 12.2 °F 74% 29.81 in 4.0 mi NW 21.9 mph 31.1 mph N/A   Mostly Cloudy
10:15 PM 17.6 °F 0.5 °F 10.4 °F 73% 29.83 in 8.0 mi NW 21.9 mph 29.9 mph N/A   Overcast
10:35 PM 17.6 °F 0.1 °F 8.6 °F 68% 29.84 in 9.0 mi NW 23.0 mph 28.8 mph N/A   Overcast
10:55 PM 17.6 °F 1.3 °F 14.0 °F 86% 29.87 in 1.0 mi NW 19.6 mph 28.8 mph N/A   Overcast
11:15 PM 15.8 °F -1.5 °F 12.2 °F 86% 29.88 in 1.8 mi NW 20.7 mph 28.8 mph N/A   Overcast
11:35 PM 15.8 °F -0.6 °F 12.2 °F 86% 29.90 in 1.5 mi NW 18.4 mph 23.0 mph N/A   Overcast
11:55 PM 15.8 °F -1.1 °F 12.2 °F 86% 29.91 in 1.5 mi NW 19.6 mph 25.3 mph N/A   Overcast